Content
SEND FEEDBACK

Daily
Averages
Monthly
Summary
United States of America

ALPINE MEADOWS, CALIFORNIA


Home > North America > United States > California
Elevation: 6230 feet     Latitude: 39 12N     Longitude: 120 14W

WEATHER
 
SELECT A DAY
Number of Records: 287,699;   Date Range: 1/1/95 - 10/24/14
 
SHARE

PRINT THIS DATA

[ ← Previous Day ]
WEATHER ALMANAC - AUGUST 27, 2014
[ Next Day → ]
[ °C ]   °F
Weather ElementAverageHighLow
Temperature54.3 °F82.4 °F (1:50 pm)35.6 °F (4:15 am)
Dewpoint39 °F44.6 °F (2:35 am)33.8 °F (5:35 am)
Humidity63.7 %100 % (1:15 am)17 % (5:55 pm)
Barometer30.30 in30.34 in (6:50 am)30.25 in (12:15 am)
Wind Speed2.2 mph11.5 mph (3:50 pm)
Wind Gust16.1 mph (5:45 pm)
Weather ElementAverage
Visibility10 mi
Wind DirectionENE (74 °)

Weather ElementTotal
Precipitation---
Heating Degree Days6 (Base 65)
Growing Degree Days9 (Base 50)
Averaged from 48 records on August 27, 2014
WEATHER CONDITIONS BREAKOUT
WIND DIRECTION BREAKOUT
WEATHER BY HOUR - AUGUST 27, 2014
[ °C ]   °F
Local TimeTemperatureDewpointHumidityBarometerVisibilityWind DirectionWind SpeedGust SpeedPrecipitationEventsConditions
12:15 AM48.2 °F37.4 °F66 %30.26 in10.0 miCalmClear
12:35 AM44.6 °F35.6 °F71 %30.27 in10.0 miCalmClear
12:55 AM42.8 °F35.6 °F76 %30.28 in10.0 miCalmClear
1:15 AM42.8 °F37.4 °F81 %30.28 in10.0 miCalmClear
1:35 AM41.0 °F33.8 °F76 %30.28 in10.0 miCalmClear
1:55 AM41.0 °F33.8 °F76 %30.28 in10.0 miCalmClear
2:15 AM41.0 °F35.6 °F81 %30.28 in10.0 miCalmClear
2:35 AM41.0 °F37.4 °F87 %30.29 in10.0 miCalmClear
2:55 AM41.0 °F37.4 °F87 %30.29 in10.0 miCalmClear
3:15 AM39.2 °F35.6 °F87 %30.29 in10.0 miCalmClear
3:35 AM41.0 °F37.4 °F87 %30.29 in10.0 miCalmClear
3:55 AM39.2 °F37.4 °F93 %30.29 in10.0 miCalmClear
4:15 AM37.4 °F35.6 °F93 %30.29 in10.0 miCalmClear
4:35 AM39.2 °F35.6 °F87 %30.29 in10.0 miCalmClear
4:55 AM35.6 °F35.6 °F100 %30.31 in10.0 miCalmClear
5:15 AM37.4 °F35.6 °F93 %30.31 in10.0 miCalmClear
5:35 AM35.6 °F33.8 °F93 %30.31 in10.0 miCalmClear
5:55 AM37.4 °F35.6 °F93 %30.31 in10.0 miCalmClear
6:15 AM35.6 °F33.8 °F93 %30.32 in10.0 miCalmClear
6:35 AM35.6 °F33.8 °F93 %30.33 in10.0 miCalmClear
6:50 AM37.4 °F35.6 °F93 %30.34 in10.0 miCalmClear
7:55 AM44.6 °F37.4 °F76 %30.34 in10.0 miCalmClear
9:55 AM60.8 °F39.2 °F45 %30.34 in10.0 miCalmClear
10:55 AM69.8 °F37.4 °F31 %30.34 in10.0 miCalmClear
11:55 AM73.4 °F33.8 °F23 %30.32 in10.0 miWest (270°)4.6 mphClear
12:45 PM75.2 °F35.6 °F24 %30.31 in10.0 miWest (260°)3.5 mphClear
1:55 PM78.8 °F35.6 °F21 %30.29 in10.0 miSSE (160°)8.1 mphClear
2:55 PM80.6 °F35.6 °F20 %30.28 in10.0 miEast (90°)6.9 mphClear
3:55 PM82.4 °F33.8 °F17 %30.26 in10.0 miNW (310°)5.8 mphPartly Cloudy
4:45 PM82.4 °F35.6 °F19 %30.25 in10.0 miSSE (150°)5.8 mphPartly Cloudy
6:15 PM77.0 °F44.6 °F32 %30.26 in10.0 miWSW (250°)11.5 mphClear
6:35 PM75.2 °F44.6 °F34 %30.26 in10.0 miWest (270°)10.4 mphClear
6:55 PM73.4 °F44.6 °F36 %30.27 in10.0 miWest (260°)9.2 mph16.1 mphClear
7:15 PM71.6 °F44.6 °F38 %30.27 in10.0 miWSW (250°)11.5 mphClear
7:35 PM69.8 °F44.6 °F40 %30.28 in10.0 miWSW (240°)5.8 mphClear
7:55 PM68.0 °F44.6 °F43 %30.29 in10.0 miWSW (240°)4.6 mphClear
8:15 PM68.0 °F44.6 °F43 %30.29 in10.0 miCalmClear
8:35 PM68.0 °F44.6 °F43 %30.31 in10.0 miCalmClear
8:55 PM60.8 °F42.8 °F52 %30.31 in10.0 miSouth (170°)3.5 mphClear
9:15 PM60.8 °F44.6 °F55 %30.32 in10.0 miSE (140°)3.5 mphClear
9:35 PM55.4 °F44.6 °F67 %30.32 in10.0 miSSE (160°)3.5 mphClear
9:55 PM55.4 °F44.6 °F67 %30.32 in10.0 miSouth (170°)3.5 mphClear
10:15 PM53.6 °F44.6 °F72 %30.32 in10.0 miCalmClear
10:35 PM53.6 °F44.6 °F72 %30.32 in10.0 miCalmClear
10:55 PM55.4 °F44.6 °F67 %30.32 in10.0 miSSE (160°)3.5 mphClear
11:15 PM53.6 °F44.6 °F72 %30.32 in10.0 miCalmClear
11:35 PM53.6 °F42.8 °F67 %30.32 in10.0 miCalmClear
11:55 PM50.0 °F42.8 °F76 %30.32 in10.0 miCalmClear
Hourly data recorded from KTRK, located miles away from Alpine Meadows, California







STORIES FROM OUR PARTNERS